Regional Weather Roundup
Issued by NWS

Home | Current Version | Previous Version | Text Only | Print | Product List | Glossary On
Versions: 1 2 3 4 5 6 7 8 9 10 11 12 13 14 15 16 17 18 19 20 21 22 23 24 25 26 27 28 29 30 31 32 33 34 35 36 37 38 39 40 41 42 43 44 45 46 47 48 49 50
000
ASUS43 KTOP 300459
RWRKS

WEATHER ROUNDUP FOR KANSAS
NATIONAL WEATHER SERVICE GOODLAND KS
1100 PM CST THU JAN 29 2015

NOTE:  "FAIR" INDICATES FEW OR NO CLOUDS BELOW 12,000 FEET WITH NO
SIGNIFICANT WEATHER AND/OR OBSTRUCTIONS TO VISIBILITY.

KSZ001>006-013>018-027>032-041>047-300600-
NORTHWEST KANSAS

CITY           SKY/WX    TMP DP  RH WIND       PRES   REMARKS
GOODLAND       PTCLDY    28  21  75 S9        30.46F
HAYS           CLEAR     27  12  54 NW6       30.51S
HILL CITY      CLEAR     21  14  74 CALM      30.51S
RUSSELL        CLEAR     27  21  78 W5        30.51R
$$

KSZ061>065-074>080-084>089-300600-
SOUTHWEST KANSAS

CITY           SKY/WX    TMP DP  RH WIND       PRES   REMARKS
DODGE CITY     PTCLDY    25  17  72 SW6       30.51R
ELKHART          N/A     37  22  54 S7          N/A
GARDEN CITY    PTCLDY    26  19  74 S3        30.50R
LIBERAL        PTCLDY    30  14  51 CALM      30.53R
$$

KSZ066>073-081>083-090>101-300600-
SOUTHEAST KANSAS

CITY           SKY/WX    TMP DP  RH WIND       PRES   REMARKS
CHANUTE        CLEAR     30  25  81 NW3       30.53R
COFFEYVILLE    FAIR      33  26  75 N5        30.53S
HUTCHINSON     PTCLDY    25  20  81 CALM      30.52S
MEDICINE LODGE   N/A     29  23  78 NW3       30.53R
NEWTON         PTCLDY    30  19  64 N6        30.52F
PARSONS        CLEAR     33  27  78 N5        30.53S
WICHITA INTL   PTCLDY    30  22  72 N6        30.52S
WICHITA JABRA  PTCLDY    33  24  69 N3        30.52S
WINFIELD       CLEAR     33  24  69 NE3       30.54R
$$

KSZ007>012-019>026-033>040-048>060-102>105-300600-
NORTHEAST KANSAS

CITY           SKY/WX    TMP DP  RH WIND       PRES   REMARKS
CONCORDIA      CLEAR     28  21  75 E3        30.51S
EMPORIA        CLEAR     28  23  81 CALM      30.51S
LAWRENCE       CLEAR     22  18  85 CALM      30.54R
MANHATTAN      CLEAR     23  20  88 SW3       30.53R
OLATHE IND     CLEAR     25  21  85 NW7       30.52S
OLATHE EXE     CLEAR     31  24  75 N5        30.50S
SALINA         CLEAR     27  20  75 CALM      30.53R
TOPEKA BILLARD CLEAR     25  23  92 NW3       30.54S
TOPEKA FORBES  CLEAR     25  20  81 N5        30.52S
$$


USA.gov is the U.S. government's official web portal to all federal, state and local government web resources and services.